STARLINK-1866 (47152 NORAD) Tracking and Keplerian Element Data
This shows tracking and keplerian element data for the satellite.
Feedback or suggestion? Click here.
Element | Value |
Catalog | 47152 |
Name | STARLINK-1866 |
Epoch Orbit | 175 |
Epoch Day | 62.91667824 |
Epoch Year | 2021 |
RAAN | 244.7729 |
Inclination | 53.0552 |
Eccentricity | 0.0002148 |
Argument of Perigee | 82.9338 |
Mean Anonmoly | 355.049 |
Mean Motion | 15.06378364 |
Decay Rate | 0.00040862 |
L1 | 1 47152U 20088AG 21062.91667824 .00040862 00000-0 27478-2 0 9991 |
L2 | 2 47152 53.0552 244.7729 0002148 82.9338 355.0490 15.06378364 1756 |
Live tracking and technical data element details for STARLINK-1866 (NORAD 47152). STARLINK-1866 can be tracked NOW for your location showing map with azimuth and elevation plus other details from your city location.
Track the satellite on the map from your city or location and see movement details for azimuth, elevation, latitude, longitude, range, height, and movement on the map or in text.
IsCatalogInMostPopularTable: catalog: 47152, numindb: 38
Update: records affected: 1
GetName: 47152 STARLINK-1866
Hit Count: updated at: Fri, 05 Mar 2021 06:56:26 GMT